Location: Bush Observatory
(40.2653°N, 94.3194°W)
Time: 17:42:35
(UTC-05:00)

Vanguard 1 - Visible Passes

Search period start: 30 August 2015 00:00
Search period end: 09 September 2015 00:00
Orbit: 649 x 3835 km, 34.2° (Epoch: 29 August)

Date Brightness Start Highest point End Pass type
(mag) Time Alt. Az. Time Alt. Az. Time Alt. Az.
30 Aug 13.4 01:26:46 15° ESE 01:26:46 15° ESE 01:28:58 10° ESE visible
30 Aug 12.4 03:39:37 37° S 03:39:37 37° S 03:53:52 10° SE visible
30 Aug 13.1 05:52:29 11° WSW 06:01:27 17° SW 06:12:04 10° S visible
30 Aug 10.8 20:51:35 10° SSW 20:55:18 23° SSE 20:57:58 17° ESE visible
30 Aug 11.7 23:09:10 10° WSW 23:10:42 21° WSW 23:10:42 21° WSW visible
31 Aug 13.4 01:48:03 15° ESE 01:48:03 15° ESE 01:50:23 10° ESE visible
31 Aug 12.6 04:00:54 31° SSW 04:00:54 31° SSW 04:14:06 10° SSE visible
31 Aug 13.3 06:17:46 10° SW 06:23:08 11° SW 06:27:00 10° SSW visible
31 Aug 10.5 21:11:56 10° SW 21:16:06 30° SSE 21:18:00 25° ESE visible
31 Aug 12.1 23:30:04 10° WSW 23:30:43 14° WSW 23:30:43 14° WSW visible
01 Sep 13.4 02:09:17 15° SE 02:09:17 15° SE 02:11:36 10° SE visible
01 Sep 12.9 04:22:08 25° SSW 04:22:08 25° SSW 04:33:44 10° SSE visible
01 Sep 10.3 21:32:31 10° SW 21:36:59 38° SSE 21:37:59 36° SE visible
02 Sep 13.5 02:30:28 14° SE 02:30:28 14° SE 02:32:30 10° SE visible
02 Sep 13.1 04:43:17 19° SSW 04:43:17 19° SSW 04:52:31 10° S visible
02 Sep 10.1 21:53:17 10° WSW 21:57:55 45° SSE 21:57:55 45° SSE visible
03 Sep 13.5 02:51:32 13° SSE 02:51:32 13° SSE 02:53:02 10° SSE visible
03 Sep 13.3 05:04:21 13° SSW 05:04:21 13° SSW 05:09:31 10° SSW visible
03 Sep 10.3 22:14:09 10° WSW 22:17:49 43° SSW 22:17:49 43° SSW visible
04 Sep 13.6 03:12:30 11° SSE 03:12:30 11° SSE 03:13:04 10° SSE visible
04 Sep 10.4 20:16:40 10° SW 20:20:26 28° SSE 20:24:58 10° E visible
04 Sep 10.9 22:35:05 10° WSW 22:37:42 31° SW 22:37:42 31° SW visible
05 Sep 10.1 20:37:19 10° SW 20:41:20 35° SSE 20:44:51 17° ESE visible
05 Sep 11.6 22:56:04 10° WSW 22:57:34 20° WSW 22:57:34 20° WSW visible
06 Sep 9.9 20:58:07 10° WSW 21:02:19 41° S 21:04:43 26° ESE visible
06 Sep 12.1 23:17:06 10° W 23:17:25 12° WSW 23:17:25 12° WSW visible
07 Sep 9.9 21:19:02 10° WSW 21:23:18 44° S 21:24:33 37° SE visible
08 Sep 9.9 21:40:01 10° WSW 21:44:20 44° S 21:44:25 44° S visible
